sat.trackr.live / text

‹ back to catalog

STARLINK-37001

NORAD 68330 · 2026-059K

PAYLOAD ACTIVE UNKNOWN

§ Identity

Operator
Country
US
Launch date
2026-03-22
Launch site
AFETR
Launch vehicle
Mass (kg)
RCS (m²)

Purposes: comms

External: N2YO · Heavens-Above · Gunter

§ Orbital elements

Epoch: 2026-05-24T23:00:37.836000Z

Period
94.05 min
Inclination
53.1598°
Eccentricity
0.0001121
Mean motion
15.31036545 rev/d
Perigee alt
472.0 km
Apogee alt
473.5 km
Semi-major
6,850.9 km
B*
1.7551e-4
RAAN
353.9649°
Arg perigee
99.8887°
Mean anomaly
260.2240°
Rev number
985

§ Raw data

STARLINK-370011 68330U 26059K   26144.95877125  .00004976  00000+0  17551-3 0  99902 68330  53.1598 353.9649 0001121  99.8887 260.2240 15.31036545  9857

JSON: /api/v1/satellites/68330 · /tle

For live sub-satellite position, see the globe view (requires WebGL).

§ Visibility from observer

Set your observer location to see the next 7 days of passes ≥ 10°. The values pass through the URL so the page stays shareable.

No JS? Fill the form by hand. The geolocation button needs JavaScript.